Tracking 25963 objects as of 13-Aug-2022
HD Live streaming from Space Station
objects crossing your sky now

STARLINK-3757

Track STARLINK-3757 now!
10-day predictions
STARLINK-3757 is classified as:


NORAD ID: 52539
Int'l Code: 2022-051G
Perigee: 545.2 km
Apogee: 548.6 km
Inclination: 53.2 °
Period: 95.4 minutes
Semi major axis: 6917 km
RCS: Unknown
Launch date: May 13, 2022
Source: United States (US)
Launch site: AIR FORCE WESTERN TEST RANGE (AFWTR)
aabbcc
Your satellite tracking list
Your tracking list is empty




NASA's NSSDC Master Catalog

Two Line Element Set (TLE):
1 52539U 22051G   22224.58334491 -.00010761  00000-0 -65880-3 0  9990
2 52539  53.2165 227.9810 0002453  40.4822  27.1816 15.08848992  1304
Source of the keplerian elements: AFSPC